Location: ?????
(55.6500°N, 37.2500°E)
Time: 02:19:08
(UTC+00:00)

Cosmos 1975 - Pass Details

Date: 19 May 2025
Orbit: 487 x 506 km, 82.5° (Epoch: 13 June)

Event Time Altitude Azimuth Distance (km) Brightness Sun altitude
Rises 21:06:30 0° 340° (NNW) 2,579 7.9 -14.3°
Reaches altitude 10° 21:08:49 10° 328° (NNW) 1,690 6.3 -14.3°
Maximum altitude 21:11:58 27° 270° (W) 966 4.1 -14.3°
Enters shadow 21:13:59 17° 223° (SW) 1,306 4.3 -14.3°
